Flag for India Weather past 2 weeks in Faridabad, Haryana, India

Now
70 °F

Fog.


Feels Like: 70 °F
Forecast: 69 / 95 °F
Wind: No wind

Location: New Delhi Palam Airport

Current Time: Apr 1, 2015 at 7:43:49 AM

Latest Report: Apr 1, 2015 at 7:00 AM


Visibility: 1 mi

Pressure: 29.83 "Hg

Humidity: 88%

Dew point: 66 °F

Location of FaridabadLocation

Historic Weather in Faridabad — Graph

°F

Faridabad temperature yesterday

Maximum temperature yesterday: 88 °F (at 3:30 PM)
Minimum temperature yesterday: 68 °F (at 3:00 AM)
Average temperature yesterday: 77 °F

Past Weeks' High & Low Weather Summary

 TemperatureHumidityPressure
High97 °F (Mar 26, 3:00 PM)100% (Mar 24, 5:00 AM)30.09 "Hg (Mar 24, 5:00 AM)
Low55 °F (Mar 18, 6:00 AM)20% (Mar 28, 4:00 PM)29.74 "Hg (Mar 29, 5:00 PM)
Average77 °F55%29.91 "Hg
* Reported Mar 17 5:30 AM — Apr 1 6:00 AM, Faridabad, Weather by CustomWeather, © 2015

Note: Actual official high and low records may vary slightly from our data, if they occured in-between our weather recording intervals... More about our weather records

Advertising

Faridabad weather history for previous 24 hours

 ConditionsComfort  
Time TempWeatherWind HumidityBarometerVisibility
6:00 AM
Wed, Apr 1
68 °FFog.No wind88%29.80 "Hg1 mi
4:30 AM68 °FFog.No wind88%29.80 "Hg1 mi
4:00 AM70 °FFog.No wind83%29.80 "Hg1 mi
3:30 AM70 °FFog.No wind88%29.80 "Hg1 mi
3:00 AM72 °FFog.No wind83%29.80 "Hg1 mi
2:30 AM72 °FFog.No wind83%29.83 "Hg1 mi
2:00 AM72 °FFog.No wind83%29.83 "Hg1 mi
1:30 AM72 °FFog.No wind83%29.83 "Hg1 mi
1:00 AM73 °FFog.No wind78%29.83 "Hg1 mi
12:30 AM73 °FFog.No wind78%29.86 "Hg1 mi
12:00 AM73 °FFog.No wind78%29.86 "Hg1 mi
11:30 PM
Tue, Mar 31
75 °FHaze.No wind74%29.86 "Hg2 mi
11:00 PM75 °FHaze.3 mph69%29.86 "Hg2 mi
10:30 PM75 °FHaze.5 mph74%29.86 "Hg2 mi
10:00 PM75 °FHaze.3 mph74%29.86 "Hg2 mi
9:30 PM75 °FHaze.6 mph74%29.86 "Hg2 mi
9:00 PM75 °FHaze.6 mph74%29.86 "Hg2 mi
8:30 PM77 °FHaze.5 mph65%29.83 "Hg2 mi
8:00 PM79 °FHaze.7 mph61%29.83 "Hg2 mi
7:30 PM81 °FHaze.6 mph58%29.83 "Hg2 mi
7:00 PM82 °FHaze.8 mph51%29.83 "Hg2 mi
6:30 PM82 °FScattered clouds.7 mph51%29.83 "Hg2 mi
6:00 PM84 °FScattered clouds.5 mph45%29.83 "Hg2 mi
5:30 PM86 °FScattered clouds.5 mph43%29.80 "Hg2 mi
5:00 PM86 °FScattered clouds.6 mph43%29.80 "Hg2 mi
4:30 PM86 °FScattered clouds.5 mph40%29.80 "Hg2 mi
4:00 PM88 °FScattered clouds.3 mph38%29.83 "Hg2 mi
3:30 PM88 °FScattered clouds.3 mph38%29.83 "Hg2 mi
3:00 PM86 °FScattered clouds.5 mph43%29.83 "Hg2 mi
2:30 PM86 °FScattered clouds.3 mph43%29.83 "Hg2 mi
2:00 PM86 °FScattered clouds.5 mph43%29.86 "Hg2 mi
1:30 PM86 °FScattered clouds.2 mph43%29.86 "Hg2 mi
1:00 PM84 °FHaze.5 mph45%29.89 "Hg2 mi
12:30 PM84 °FHaze.7 mph45%29.92 "Hg2 mi
12:00 PM84 °FHaze.5 mph45%29.92 "Hg2 mi
11:30 AM82 °FHaze.6 mph48%29.92 "Hg2 mi
10:30 AM77 °FHaze.5 mph57%29.95 "Hg2 mi
10:00 AM77 °FHaze.7 mph57%29.92 "Hg1 mi
9:30 AM75 °FHaze.9 mph61%29.92 "Hg1 mi
9:00 AM73 °FHaze.8 mph65%29.92 "Hg1 mi
8:30 AM73 °FHaze.9 mph65%29.89 "Hg1 mi
7:30 AM68 °FFog.8 mph78%29.86 "Hg1 mi
7:00 AM68 °FFog.8 mph78%29.86 "Hg1 mi
Weather by CustomWeather, © 2015

See weather overviewHow to use our weather pages